Location: *
(43.9905°S, 176.4941°W)
Time: 08:29:00
(UTC+00:00)

Aureole 3 - Pass Details

Date: 08 December 2019
Orbit: 382 x 1236 km, 82.5° (Epoch: 17 January)

Event Time Altitude Azimuth Distance (km) Brightness Sun altitude
Exits shadow 09:28:30 26° 19° (NNE) 1,704 5.2 -17.0°
Maximum altitude 09:31:41 55° 85° (E) 998 4.3 -17.3°
Drops below altitude 10° 09:36:31 10° 162° (SSE) 2,194 6.9 -17.8°
Sets 09:38:36 0° 166° (SSE) 2,996 7.8 -17.9°
